Year,Month,Day,Hour,Minute,Value (Times are PST for temperature in C)
2013,07,23,11,49,10.70
2013,07,23,11,50,10.70
2013,07,23,11,52,10.70
2013,07,23,11,54,10.70
2013,07,23,11,56,10.70
2013,07,23,11,57,10.70
2013,07,23,11,58,10.70
2013,07,23,11,59,10.80
2013,07,23,12,00,10.80
2013,07,23,12,01,10.80
2013,07,23,12,02,10.80
2013,07,23,12,03,10.80
2013,07,23,12,04,10.80
2013,07,23,12,05,10.80
2013,07,23,12,06,10.80
2013,07,23,12,07,10.80
2013,07,23,12,08,10.80
2013,07,23,12,09,10.80
2013,07,23,12,10,10.80
2013,07,23,12,11,10.90
2013,07,23,12,12,10.90
2013,07,23,12,13,10.90
2013,07,23,12,14,10.90
2013,07,23,12,15,10.90
2013,07,23,12,16,10.90
2013,07,23,12,17,10.90
2013,07,23,12,18,11.00
2013,07,23,12,19,11.00
2013,07,23,12,20,11.00
2013,07,23,12,21,11.00
2013,07,23,12,22,11.00
2013,07,23,12,23,11.00
2013,07,23,12,24,11.00
2013,07,23,12,25,11.00
2013,07,23,12,26,11.00
2013,07,23,12,27,11.00
2013,07,23,12,28,11.00
2013,07,23,12,29,11.00
2013,07,23,12,30,11.00
2013,07,23,12,31,11.00
2013,07,23,12,32,11.00
2013,07,23,12,33,11.00
2013,07,23,12,34,11.00
2013,07,23,12,35,11.00
2013,07,23,12,36,10.90
2013,07,23,12,37,10.90
2013,07,23,12,38,10.90
2013,07,23,12,39,10.90
2013,07,23,12,40,10.90
2013,07,23,12,41,10.90
2013,07,23,12,42,10.90
2013,07,23,12,43,10.90
2013,07,23,12,44,10.90
2013,07,23,12,45,10.90
2013,07,23,12,46,10.90
2013,07,23,12,47,10.90
2013,07,23,12,48,10.90
2013,07,23,12,49,10.90
2013,07,23,12,50,10.80
2013,07,23,12,51,10.80
2013,07,23,12,52,10.80
2013,07,23,12,53,10.80
2013,07,23,12,54,10.80
2013,07,23,12,55,10.80
2013,07,23,12,56,10.80
2013,07,23,12,57,10.80
2013,07,23,12,58,10.80
2013,07,23,12,59,10.80
2013,07,23,13,00,10.80
2013,07,23,13,01,10.80
2013,07,23,13,02,10.80
2013,07,23,13,03,10.80
2013,07,23,13,04,10.80
2013,07,23,13,05,10.80
2013,07,23,13,06,10.80
2013,07,23,13,07,10.80
2013,07,23,13,08,10.80
2013,07,23,13,09,10.80
2013,07,23,13,10,10.80
2013,07,23,13,11,10.80
2013,07,23,13,12,10.80
2013,07,23,13,13,10.80
2013,07,23,13,14,10.80
2013,07,23,13,15,10.90
2013,07,23,13,16,10.90
2013,07,23,13,17,10.90
2013,07,23,13,18,11.00
2013,07,23,13,19,11.00
2013,07,23,13,20,11.10
2013,07,23,13,21,11.10
2013,07,23,13,22,11.20
2013,07,23,13,23,11.30
2013,07,23,13,24,11.40
2013,07,23,13,25,11.40
2013,07,23,13,26,11.40
2013,07,23,13,27,11.40
2013,07,23,13,28,11.40
2013,07,23,13,29,11.40
2013,07,23,13,30,11.40
2013,07,23,13,31,11.40
2013,07,23,13,32,11.30
2013,07,23,13,33,11.30
2013,07,23,13,34,11.40
2013,07,23,13,35,11.30
2013,07,23,13,36,11.30
2013,07,23,13,37,11.30
2013,07,23,13,38,11.30
2013,07,23,13,39,11.30
2013,07,23,13,40,11.30
2013,07,23,13,41,11.30
2013,07,23,13,42,11.30
2013,07,23,13,43,11.30
2013,07,23,13,44,11.30
2013,07,23,13,45,11.30
2013,07,23,13,46,11.30
2013,07,23,13,47,11.30
2013,07,23,13,48,11.30
2013,07,23,13,49,11.30
2013,07,23,13,50,11.40
2013,07,23,13,51,11.40
2013,07,23,13,52,11.50
2013,07,23,13,53,11.60
2013,07,23,13,54,11.50
2013,07,23,13,55,11.40
2013,07,23,13,56,11.50
2013,07,23,13,57,11.50
2013,07,23,13,58,11.40
2013,07,23,13,59,11.40
2013,07,23,14,00,11.40
2013,07,23,14,01,11.40
2013,07,23,14,02,11.50
2013,07,23,14,03,11.60
2013,07,23,14,04,11.70
2013,07,23,14,05,11.90
2013,07,23,14,06,11.80
2013,07,23,14,07,11.90
2013,07,23,14,08,12.10
2013,07,23,14,09,12.30
2013,07,23,14,10,12.40
2013,07,23,14,11,12.50
2013,07,23,14,12,12.40
2013,07,23,14,13,12.30
2013,07,23,14,14,12.40
2013,07,23,14,15,12.50
2013,07,23,14,16,12.50
2013,07,23,14,17,12.40
2013,07,23,14,18,12.40
2013,07,23,14,19,12.30
2013,07,23,14,20,12.20
2013,07,23,14,21,12.20
2013,07,23,14,22,12.30
2013,07,23,14,23,12.60
2013,07,23,14,24,12.70
2013,07,23,14,25,12.70
2013,07,23,14,26,12.50
2013,07,23,14,27,12.40
2013,07,23,14,28,12.20
2013,07,23,14,29,12.10
2013,07,23,14,30,12.10
2013,07,23,14,31,12.10
2013,07,23,14,32,12.20
2013,07,23,14,33,12.20
2013,07,23,14,34,12.20
2013,07,23,14,35,12.10
2013,07,23,14,36,12.20
2013,07,23,14,37,12.10
2013,07,23,14,38,12.30
2013,07,23,14,39,12.40
2013,07,23,14,40,12.40
2013,07,23,14,41,12.50
2013,07,23,14,42,12.60
2013,07,23,14,43,12.70
2013,07,23,14,44,12.70
2013,07,23,14,45,13.20
2013,07,23,14,46,13.20
2013,07,23,14,47,13.60
2013,07,23,14,48,13.40
2013,07,23,14,49,13.40
2013,07,23,14,50,13.20
2013,07,23,14,51,13.20
2013,07,23,14,52,13.10
2013,07,23,14,53,13.20
2013,07,23,14,54,13.20
2013,07,23,14,55,13.10
2013,07,23,14,56,13.00
2013,07,23,14,57,12.90
2013,07,23,14,58,12.90
2013,07,23,14,59,12.80
2013,07,23,15,00,12.80
2013,07,23,15,01,12.60
2013,07,23,15,02,12.50
2013,07,23,15,03,12.50
2013,07,23,15,04,12.40
2013,07,23,15,05,12.30
2013,07,23,15,06,12.30
2013,07,23,15,07,12.20
2013,07,23,15,08,12.20
2013,07,23,15,09,12.20
2013,07,23,15,10,12.30
2013,07,23,15,11,12.30
2013,07,23,15,12,12.30
2013,07,23,15,13,12.30
2013,07,23,15,14,12.40
2013,07,23,15,15,12.50
2013,07,23,15,16,12.40
2013,07,23,15,17,12.30
2013,07,23,15,18,12.20
2013,07,23,15,19,12.10
2013,07,23,15,20,12.10
2013,07,23,15,21,12.00
2013,07,23,15,22,12.00
2013,07,23,15,23,12.00
2013,07,23,15,24,11.90
2013,07,23,15,25,11.90
2013,07,23,15,26,11.90
2013,07,23,15,27,11.90
2013,07,23,15,28,12.00
2013,07,23,15,29,11.90
2013,07,23,15,30,11.90
2013,07,23,15,31,11.90
2013,07,23,15,32,12.00
2013,07,23,15,33,12.00
2013,07,23,15,34,12.00
2013,07,23,15,35,12.00
2013,07,23,15,36,12.10
2013,07,23,15,37,12.10
2013,07,23,15,38,12.20
2013,07,23,15,39,12.30
2013,07,23,15,40,12.50
2013,07,23,15,41,12.80
2013,07,23,15,42,13.00
2013,07,23,15,43,12.90
2013,07,23,15,44,12.70
2013,07,23,15,45,12.70
2013,07,23,15,46,12.80
2013,07,23,15,47,12.60
2013,07,23,15,48,12.40
2013,07,23,15,49,12.30
2013,07,23,15,50,12.20
2013,07,23,15,51,12.30
2013,07,23,15,52,12.30
2013,07,23,15,53,12.30
2013,07,23,15,54,12.30
2013,07,23,15,55,12.20
2013,07,23,15,56,12.20
2013,07,23,15,57,12.10
2013,07,23,15,58,12.10
2013,07,23,15,59,12.10
2013,07,23,16,00,12.20
2013,07,23,16,01,12.20
2013,07,23,16,02,12.20
2013,07,23,16,03,12.30
2013,07,23,16,04,12.40
2013,07,23,16,05,12.50
2013,07,23,16,06,12.50
2013,07,23,16,07,12.40
2013,07,23,16,08,12.30
2013,07,23,16,09,12.20
2013,07,23,16,10,12.20
2013,07,23,16,11,12.20
2013,07,23,16,12,12.20
2013,07,23,16,13,12.20
2013,07,23,16,14,12.20
2013,07,23,16,15,12.20
2013,07,23,16,16,12.20
2013,07,23,16,17,12.20
2013,07,23,16,18,12.20
2013,07,23,16,19,12.20
2013,07,23,16,20,12.20
2013,07,23,16,21,12.20
2013,07,23,16,22,12.20
2013,07,23,16,23,12.20
2013,07,23,16,24,12.10
2013,07,23,16,25,12.10
2013,07,23,16,26,12.10
2013,07,23,16,27,12.10
2013,07,23,16,28,12.10
2013,07,23,16,29,12.10
2013,07,23,16,30,12.20
2013,07,23,16,31,12.40
2013,07,23,16,32,12.80
2013,07,23,16,33,13.20
2013,07,23,16,34,13.30
2013,07,23,16,35,13.30
2013,07,23,16,36,13.40
2013,07,23,16,37,13.70
2013,07,23,16,38,13.70
2013,07,23,16,39,13.50
2013,07,23,16,40,13.20
2013,07,23,16,41,13.00
2013,07,23,16,42,12.80
2013,07,23,16,43,12.80
2013,07,23,16,44,12.70
2013,07,23,16,45,12.70
2013,07,23,16,46,12.70
2013,07,23,16,47,12.70
2013,07,23,16,48,12.70
2013,07,23,16,49,12.70
2013,07,23,16,50,12.70
2013,07,23,16,51,12.60
2013,07,23,16,52,12.50
2013,07,23,16,53,12.50
2013,07,23,16,54,12.60
2013,07,23,16,55,12.60
2013,07,23,16,56,12.70
2013,07,23,16,57,12.80
2013,07,23,16,58,12.80
2013,07,23,16,59,12.80
2013,07,23,17,00,12.90
2013,07,23,17,01,13.00
2013,07,23,17,02,13.00
2013,07,23,17,03,13.00
2013,07,23,17,04,13.00
2013,07,23,17,05,12.90
2013,07,23,17,06,13.00
2013,07,23,17,07,13.20
2013,07,23,17,08,13.20
2013,07,23,17,09,13.30
2013,07,23,17,10,13.40
2013,07,23,17,11,13.40
2013,07,23,17,12,13.40
2013,07,23,17,13,13.40
2013,07,23,17,14,13.40
2013,07,23,17,15,13.70
2013,07,23,17,16,13.80
2013,07,23,17,17,13.60
2013,07,23,17,18,13.40
2013,07,23,17,19,13.40
2013,07,23,17,20,13.50
2013,07,23,17,21,13.40
2013,07,23,17,22,13.30
2013,07,23,17,23,13.30
2013,07,23,17,24,13.30
2013,07,23,17,25,13.70
2013,07,23,17,26,14.30
2013,07,23,17,27,14.80
2013,07,23,17,28,15.80
2013,07,23,17,29,16.50
2013,07,23,17,30,17.20
2013,07,23,17,31,17.70
2013,07,23,17,32,17.50
2013,07,23,17,33,16.50
2013,07,23,17,34,15.70
2013,07,23,17,35,14.60
2013,07,23,17,36,13.70
2013,07,23,17,37,13.30
2013,07,23,17,38,12.90
2013,07,23,17,39,12.70
2013,07,23,17,40,12.70
2013,07,23,17,41,12.60
2013,07,23,17,42,12.50
2013,07,23,17,43,12.50
2013,07,23,17,44,12.40
2013,07,23,17,45,12.40
2013,07,23,17,46,12.30
2013,07,23,17,47,12.30
2013,07,23,17,48,12.30
2013,07,23,17,49,12.40
2013,07,23,17,50,12.40
2013,07,23,17,51,12.30
2013,07,23,17,52,12.30
2013,07,23,17,53,12.30
2013,07,23,17,54,12.50
2013,07,23,17,55,12.60
2013,07,23,17,56,12.60
2013,07,23,17,57,12.50
2013,07,23,17,58,12.50
2013,07,23,17,59,12.30
2013,07,23,18,00,12.20
2013,07,23,18,01,12.10
2013,07,23,18,02,12.00
2013,07,23,18,03,12.00
2013,07,23,18,04,12.00
2013,07,23,18,05,11.90
2013,07,23,18,06,11.90
2013,07,23,18,07,12.00
2013,07,23,18,08,11.90
2013,07,23,18,09,11.80
2013,07,23,18,10,11.70
2013,07,23,18,11,11.60
2013,07,23,18,12,11.50
2013,07,23,18,13,11.50
2013,07,23,18,14,11.40
2013,07,23,18,15,11.40
2013,07,23,18,16,11.50
2013,07,23,18,17,11.50
2013,07,23,18,18,11.70
2013,07,23,18,19,11.80
2013,07,23,18,20,11.80
2013,07,23,18,21,11.80
2013,07,23,18,22,11.80
2013,07,23,18,23,11.90
2013,07,23,18,24,12.00
2013,07,23,18,25,12.10
2013,07,23,18,26,12.20
2013,07,23,18,27,12.20
2013,07,23,18,28,12.20
2013,07,23,18,29,12.30
2013,07,23,18,30,12.30
2013,07,23,18,31,12.40
2013,07,23,18,32,12.50
2013,07,23,18,33,12.40
2013,07,23,18,34,12.40
2013,07,23,18,35,12.40
2013,07,23,18,36,12.40
2013,07,23,18,37,12.50
2013,07,23,18,38,12.70
2013,07,23,18,39,12.70
2013,07,23,18,40,12.60
2013,07,23,18,41,12.60
2013,07,23,18,42,12.50
2013,07,23,18,43,12.40
2013,07,23,18,44,12.40
2013,07,23,18,45,12.30
2013,07,23,18,46,12.30
2013,07,23,18,47,12.30
2013,07,23,18,48,12.30
2013,07,23,18,49,12.40
2013,07,23,18,50,12.40
2013,07,23,18,51,12.40
2013,07,23,18,52,12.50
2013,07,23,18,53,12.50
2013,07,23,18,54,12.50
2013,07,23,18,55,12.60
2013,07,23,18,56,12.70
2013,07,23,18,57,12.70
2013,07,23,18,58,12.80
2013,07,23,18,59,12.80
2013,07,23,19,00,12.80
2013,07,23,19,01,12.90
2013,07,23,19,02,13.10
2013,07,23,19,03,13.30
2013,07,23,19,04,13.50
2013,07,23,19,05,13.60
2013,07,23,19,06,13.80
2013,07,23,19,07,13.90
2013,07,23,19,08,14.00
2013,07,23,19,09,14.10
2013,07,23,19,10,14.20
2013,07,23,19,11,14.40
2013,07,23,19,12,14.50
2013,07,23,19,13,14.50
2013,07,23,19,14,14.50
2013,07,23,19,15,14.40
2013,07,23,19,16,14.50
2013,07,23,19,17,14.40
2013,07,23,19,18,14.40
2013,07,23,19,19,14.30
2013,07,23,19,20,14.40
2013,07,23,19,21,14.30
2013,07,23,19,22,14.30
2013,07,23,19,23,14.40
2013,07,23,19,24,14.40
2013,07,23,19,25,14.40
2013,07,23,19,26,14.40
2013,07,23,19,27,14.40
2013,07,23,19,28,14.40
2013,07,23,19,29,14.30
2013,07,23,19,30,14.20
2013,07,23,19,31,14.40
2013,07,23,19,32,14.50
2013,07,23,19,33,14.40
2013,07,23,19,34,14.60
2013,07,23,19,35,14.80
2013,07,23,19,36,15.10
2013,07,23,19,37,14.90
2013,07,23,19,38,14.40
2013,07,23,19,39,14.20
2013,07,23,19,40,14.10
2013,07,23,19,41,14.20
2013,07,23,19,42,14.40
2013,07,23,19,43,14.40
2013,07,23,19,44,14.70
2013,07,23,19,45,15.00
2013,07,23,19,46,15.20
2013,07,23,19,47,15.30
2013,07,23,19,48,15.50
2013,07,23,19,49,15.40
2013,07,23,19,50,15.10
2013,07,23,19,51,15.10
2013,07,23,19,52,15.20
2013,07,23,19,53,15.00
2013,07,23,19,54,14.70
2013,07,23,19,55,14.50
2013,07,23,19,56,14.30
2013,07,23,19,57,14.20
2013,07,23,19,58,14.00
2013,07,23,19,59,14.10
2013,07,23,20,00,14.10
2013,07,23,20,01,14.20
2013,07,23,20,02,14.30
2013,07,23,20,03,14.30
2013,07,23,20,04,14.30
2013,07,23,20,05,14.30
2013,07,23,20,06,14.40
2013,07,23,20,07,14.50
2013,07,23,20,08,14.70
2013,07,23,20,09,14.80
2013,07,23,20,10,15.00
2013,07,23,20,11,15.00
2013,07,23,20,12,14.90
2013,07,23,20,13,15.00
2013,07,23,20,14,14.90
2013,07,23,20,15,14.80
2013,07,23,20,16,14.90
2013,07,23,20,17,14.90
2013,07,23,20,18,15.00
2013,07,23,20,19,15.30
2013,07,23,20,20,15.50
2013,07,23,20,21,15.60
2013,07,23,20,22,15.60
2013,07,23,20,23,15.70
2013,07,23,20,24,15.60
2013,07,23,20,25,15.60
2013,07,23,20,26,15.70
2013,07,23,20,27,15.60
2013,07,23,20,28,15.60
2013,07,23,20,29,15.50
2013,07,23,20,30,15.40
2013,07,23,20,31,15.40
2013,07,23,20,32,15.30
2013,07,23,20,33,15.40
2013,07,23,20,34,15.40
2013,07,23,20,35,15.50
2013,07,23,20,36,15.50
2013,07,23,20,37,15.40
2013,07,23,20,38,15.30
2013,07,23,20,39,15.10
2013,07,23,20,40,15.00
2013,07,23,20,41,15.00
2013,07,23,20,42,14.90
2013,07,23,20,43,14.80
2013,07,23,20,44,14.80
2013,07,23,20,45,14.70
2013,07,23,20,46,14.70
2013,07,23,20,47,14.60
2013,07,23,20,48,14.60
2013,07,23,20,49,14.50
2013,07,23,20,50,14.30
2013,07,23,20,51,14.30
2013,07,23,20,52,14.30
2013,07,23,20,53,14.20
2013,07,23,20,54,14.20
2013,07,23,20,55,14.20
2013,07,23,20,56,14.30
2013,07,23,20,57,14.30
2013,07,23,20,58,14.20
2013,07,23,20,59,14.30
2013,07,23,21,00,14.40
2013,07,23,21,01,14.50
2013,07,23,21,02,14.60
2013,07,23,21,03,14.60
2013,07,23,21,04,14.70
2013,07,23,21,05,14.70
2013,07,23,21,06,14.70
2013,07,23,21,07,14.80
2013,07,23,21,08,14.80
2013,07,23,21,09,14.90
2013,07,23,21,10,14.90
2013,07,23,21,11,14.90
2013,07,23,21,12,14.90
2013,07,23,21,13,14.90
2013,07,23,21,14,15.00
2013,07,23,21,15,15.10
2013,07,23,21,16,15.20
2013,07,23,21,17,15.10
2013,07,23,21,18,14.90
2013,07,23,21,19,14.90
2013,07,23,21,20,15.00
2013,07,23,21,21,15.00
2013,07,23,21,22,15.00
2013,07,23,21,23,15.10
2013,07,23,21,24,15.30
2013,07,23,21,25,15.30
2013,07,23,21,26,15.20
2013,07,23,21,27,15.00
2013,07,23,21,28,14.80
2013,07,23,21,29,14.60
2013,07,23,21,30,14.40
2013,07,23,21,31,14.50
2013,07,23,21,32,14.60
2013,07,23,21,33,14.60
2013,07,23,21,34,14.80
2013,07,23,21,35,14.80
2013,07,23,21,36,14.70
2013,07,23,21,37,14.50
2013,07,23,21,38,14.40
2013,07,23,21,39,14.40
2013,07,23,21,40,14.50
2013,07,23,21,41,14.80
2013,07,23,21,42,14.90
2013,07,23,21,43,14.90
2013,07,23,21,44,14.90
2013,07,23,21,45,14.70
2013,07,23,21,46,14.60
2013,07,23,21,47,14.70
2013,07,23,21,48,14.70
2013,07,23,21,49,14.70
2013,07,23,21,50,14.60
2013,07,23,21,51,14.60
2013,07,23,21,52,14.60
2013,07,23,21,53,14.60
2013,07,23,21,54,14.60
2013,07,23,21,55,14.60
2013,07,23,21,56,14.60
2013,07,23,21,57,14.60
2013,07,23,21,58,14.60
2013,07,23,21,59,14.50
2013,07,23,22,00,14.40
2013,07,23,22,01,14.50
2013,07,23,22,02,14.60
2013,07,23,22,03,14.60
2013,07,23,22,04,14.70
2013,07,23,22,05,14.70
2013,07,23,22,06,14.80
2013,07,23,22,07,14.90
2013,07,23,22,08,14.90
2013,07,23,22,09,14.90
2013,07,23,22,10,14.80
2013,07,23,22,11,14.80
2013,07,23,22,12,14.80
2013,07,23,22,13,14.80
2013,07,23,22,14,14.80
2013,07,23,22,15,14.80
2013,07,23,22,16,14.80
2013,07,23,22,17,14.80
2013,07,23,22,18,14.80
2013,07,23,22,19,14.80
2013,07,23,22,20,14.80
2013,07,23,22,21,14.80
2013,07,23,22,22,14.80
2013,07,23,22,23,14.90
2013,07,23,22,24,15.00
2013,07,23,22,25,15.00
2013,07,23,22,26,14.90
2013,07,23,22,27,14.80
2013,07,23,22,28,14.90
2013,07,23,22,29,14.90
2013,07,23,22,30,14.90
2013,07,23,22,31,14.90
2013,07,23,22,32,14.90
2013,07,23,22,33,14.90
2013,07,23,22,34,14.90
2013,07,23,22,35,14.90
2013,07,23,22,36,14.80
2013,07,23,22,37,14.80
2013,07,23,22,38,14.80
2013,07,23,22,39,14.90
2013,07,23,22,40,14.90
2013,07,23,22,41,14.80
2013,07,23,22,42,14.80
2013,07,23,22,43,14.80
2013,07,23,22,44,14.70
2013,07,23,22,45,14.80
2013,07,23,22,46,14.80
2013,07,23,22,47,14.70
2013,07,23,22,48,14.70
2013,07,23,22,49,14.70
2013,07,23,22,50,14.70
2013,07,23,22,51,14.70
2013,07,23,22,52,14.60
2013,07,23,22,53,14.60
2013,07,23,22,54,14.60
2013,07,23,22,55,14.60
2013,07,23,22,56,14.60
2013,07,23,22,57,14.60
2013,07,23,22,58,14.60
2013,07,23,22,59,14.70
2013,07,23,23,00,14.70
2013,07,23,23,01,14.70
2013,07,23,23,02,14.70
2013,07,23,23,03,14.80
2013,07,23,23,04,14.80
2013,07,23,23,05,14.80
2013,07,23,23,06,14.80
2013,07,23,23,07,14.70
2013,07,23,23,08,14.70
2013,07,23,23,09,14.70
2013,07,23,23,10,14.70
2013,07,23,23,11,14.80
2013,07,23,23,12,14.80
2013,07,23,23,13,14.80
2013,07,23,23,14,14.70
2013,07,23,23,15,14.70
2013,07,23,23,16,14.80
2013,07,23,23,17,14.80
2013,07,23,23,18,14.80
2013,07,23,23,19,14.70
2013,07,23,23,20,14.70
2013,07,23,23,21,14.70
2013,07,23,23,22,14.60
2013,07,23,23,23,14.50
2013,07,23,23,24,14.40
2013,07,23,23,25,14.30
2013,07,23,23,26,14.20
2013,07,23,23,27,14.20
2013,07,23,23,28,14.20
2013,07,23,23,29,14.20
2013,07,23,23,30,14.20
2013,07,23,23,31,14.20
2013,07,23,23,32,14.20
2013,07,23,23,33,14.20
2013,07,23,23,34,14.30
2013,07,23,23,35,14.40
2013,07,23,23,36,14.40
2013,07,23,23,37,14.40
2013,07,23,23,38,14.30
2013,07,23,23,39,14.30
2013,07,23,23,40,14.40
2013,07,23,23,41,14.40
2013,07,23,23,42,14.50
2013,07,23,23,43,14.50
2013,07,23,23,44,14.40
2013,07,23,23,45,14.50
2013,07,23,23,46,14.50
2013,07,23,23,47,14.50
2013,07,23,23,48,14.60
2013,07,23,23,49,14.80
2013,07,23,23,50,14.90
2013,07,23,23,51,15.00
2013,07,23,23,52,15.10
2013,07,23,23,53,15.20
2013,07,23,23,54,15.10
2013,07,23,23,55,15.00
2013,07,23,23,56,14.80
2013,07,23,23,57,14.80
2013,07,23,23,58,14.80
2013,07,23,23,59,14.80
